sat.trackr.live / text

‹ back to catalog

ONEWEB-0639

NORAD 55803 · 2023-029H

PAYLOAD ACTIVE UNKNOWN

§ Identity

Operator
Country
UK
Launch date
2023-03-09
Launch site
AFETR
Launch vehicle
Mass (kg)
RCS (m²)

Purposes: comms

External: N2YO · Heavens-Above · Gunter

§ Orbital elements

Epoch: 2026-05-24T23:36:24.647040Z

Period
109.11 min
Inclination
87.9150°
Eccentricity
0.0001020
Mean motion
13.19725947 rev/d
Perigee alt
1,185.0 km
Apogee alt
1,186.5 km
Semi-major
7,563.9 km
B*
-2.5016e-4
RAAN
309.6021°
Arg perigee
68.3342°
Mean anomaly
291.7899°
Rev number
15,584

§ Raw data

ONEWEB-06391 55803U 23029H   26144.98361860 -.00000087  00000+0 -25016-3 0  99982 55803  87.9150 309.6021 0001020  68.3342 291.7899 13.19725947155849

JSON: /api/v1/satellites/55803 · /tle

For live sub-satellite position, see the globe view (requires WebGL).

§ Visibility from observer

Set your observer location to see the next 7 days of passes ≥ 10°. The values pass through the URL so the page stays shareable.

No JS? Fill the form by hand. The geolocation button needs JavaScript.

§ Radio — SatNOGS DB

ModeDescriptionDownlinkUplink
FM S-band telemetry 2.257 GHz

1 transmitter · refreshed weekly from db.satnogs.org